N7069G KORD-KDPA

Flight info

Callsign N7069G
Flight time 0h 15m
Altitude 4000
Route KORD NILES KDPA
Aircraft C208/L-VGD/C

Departure

Time 2026-04-26 20:33
Airport Chicago O'Hare International Airport (KORD)

Arrival

Time 2026-04-26 20:48
Airport Dupage Airport (KDPA)
Time Latitude Longitude Altitude Speed Heading
2026-04-26 20:06 41.99749 -87.92260 670 ft 0 kts 315°
2026-04-26 20:07 41.99750 -87.92260 670 ft 0 kts 315°
2026-04-26 20:27 41.99769 -87.92289 669 ft 12 kts 301°
2026-04-26 20:27 41.99741 -87.92340 669 ft 10 kts 155°
2026-04-26 20:28 41.99668 -87.92267 669 ft 19 kts 140°
2026-04-26 20:28 41.99554 -87.92182 673 ft 18 kts 140°
2026-04-26 20:28 41.99387 -87.91994 672 ft 30 kts 141°
2026-04-26 20:28 41.99345 -87.91946 672 ft 20 kts 136°
2026-04-26 20:29 41.99225 -87.91862 670 ft 15 kts 200°
2026-04-26 20:29 41.99076 -87.91885 669 ft 29 kts 179°
2026-04-26 20:29 41.98992 -87.91979 670 ft 25 kts 268°
2026-04-26 20:29 41.98995 -87.92314 679 ft 23 kts 269°
2026-04-26 20:30 41.98957 -87.92405 680 ft 9 kts 186°
2026-04-26 20:30 41.98936 -87.92406 680 ft 0 kts 181°
2026-04-26 20:31 41.98851 -87.92402 678 ft 15 kts 162°
2026-04-26 20:31 41.98830 -87.92369 676 ft 0 kts 91°
2026-04-26 20:32 41.98829 -87.91993 679 ft 85 kts 89°
2026-04-26 20:32 41.98759 -87.91008 877 ft 122 kts 104°
2026-04-26 20:33 41.98468 -87.89909 1287 ft 127 kts 133°
2026-04-26 20:33 41.97665 -87.89388 1580 ft 135 kts 179°
2026-04-26 20:33 41.96787 -87.89286 2135 ft 128 kts 174°
2026-04-26 20:33 41.95843 -87.89160 2429 ft 139 kts 176°
2026-04-26 20:34 41.94884 -87.89049 2832 ft 138 kts 176°
2026-04-26 20:34 41.93920 -87.88941 3224 ft 139 kts 176°
2026-04-26 20:34 41.92947 -87.88832 3613 ft 140 kts 176°
2026-04-26 20:34 41.91977 -87.88723 3970 ft 143 kts 176°
2026-04-26 20:35 41.90909 -87.88611 4009 ft 162 kts 176°
2026-04-26 20:35 41.89750 -87.88494 4009 ft 170 kts 176°
2026-04-26 20:35 41.88586 -87.88377 4010 ft 169 kts 176°
2026-04-26 20:35 41.87407 -87.88253 4010 ft 169 kts 176°
2026-04-26 20:36 41.86227 -87.88127 4009 ft 170 kts 176°
2026-04-26 20:36 41.85046 -87.88004 4010 ft 170 kts 176°
2026-04-26 20:36 41.83918 -87.88240 3995 ft 167 kts 211°
2026-04-26 20:36 41.83087 -87.89264 3989 ft 147 kts 227°
2026-04-26 20:37 41.82456 -87.90121 3972 ft 113 kts 226°
2026-04-26 20:37 41.81949 -87.90795 3851 ft 100 kts 226°
2026-04-26 20:37 41.81463 -87.91444 3751 ft 91 kts 229°
2026-04-26 20:37 41.81001 -87.92043 3843 ft 103 kts 224°
2026-04-26 20:38 41.80490 -87.92733 4330 ft 106 kts 226°
2026-04-26 20:38 41.79864 -87.93652 4064 ft 159 kts 235°
2026-04-26 20:38 41.79443 -87.95067 4014 ft 169 kts 263°
2026-04-26 20:38 41.79344 -87.96644 4009 ft 173 kts 266°
2026-04-26 20:39 41.79251 -87.98271 4006 ft 175 kts 266°
2026-04-26 20:39 41.79199 -87.99360 4009 ft 176 kts 266°
2026-04-26 20:39 41.79090 -88.01538 4002 ft 177 kts 266°
2026-04-26 20:39 41.79013 -88.03190 4002 ft 176 kts 267°
2026-04-26 20:40 41.78932 -88.04821 4002 ft 179 kts 268°
2026-04-26 20:40 41.78855 -88.06503 3998 ft 179 kts 267°
2026-04-26 20:40 41.78774 -88.08151 3999 ft 178 kts 267°
2026-04-26 20:40 41.78696 -88.09794 3996 ft 177 kts 266°
2026-04-26 20:41 41.78613 -88.11439 3996 ft 177 kts 266°
2026-04-26 20:41 41.78529 -88.13086 3994 ft 175 kts 267°
2026-04-26 20:41 41.78453 -88.14726 3994 ft 175 kts 266°
2026-04-26 20:41 41.78379 -88.16346 4000 ft 177 kts 266°
2026-04-26 20:42 41.78300 -88.18005 3991 ft 177 kts 267°
2026-04-26 20:42 41.78221 -88.19665 3995 ft 178 kts 266°
2026-04-26 20:42 41.78142 -88.21310 3993 ft 178 kts 267°
2026-04-26 20:42 41.78062 -88.22975 3999 ft 179 kts 266°
2026-04-26 20:43 41.77983 -88.24643 3994 ft 179 kts 267°
2026-04-26 20:43 41.77921 -88.26286 3997 ft 178 kts 267°
2026-04-26 20:43 41.77840 -88.27950 3993 ft 178 kts 267°
2026-04-26 20:43 41.77843 -88.29586 3958 ft 179 kts 288°
2026-04-26 20:44 41.78591 -88.30885 3984 ft 177 kts 322°
2026-04-26 20:44 41.79735 -88.31398 3999 ft 180 kts
2026-04-26 20:44 41.80889 -88.30797 3999 ft 180 kts 36°
2026-04-26 20:44 41.81888 -88.29768 3852 ft 187 kts 37°
2026-04-26 20:45 41.82946 -88.28682 3031 ft 193 kts 38°
2026-04-26 20:45 41.84075 -88.27713 2136 ft 192 kts 26°
2026-04-26 20:45 41.85257 -88.26940 1773 ft 181 kts 24°
2026-04-26 20:45 41.86370 -88.26286 1639 ft 150 kts 20°
2026-04-26 20:46 41.87171 -88.26032 1408 ft 108 kts 11°
2026-04-26 20:46 41.87898 -88.25803 1158 ft 107 kts 13°
2026-04-26 20:46 41.88623 -88.25580 937 ft 104 kts 11°
2026-04-26 20:46 41.89273 -88.25387 788 ft 86 kts 13°
2026-04-26 20:47 41.89756 -88.25231 761 ft 59 kts 12°
2026-04-26 20:47 41.90010 -88.25154 760 ft 61 kts 15°
2026-04-26 20:47 41.90500 -88.24995 762 ft 74 kts 15°
2026-04-26 20:47 41.91088 -88.24796 765 ft 80 kts 14°
2026-04-26 20:48 41.91404 -88.24595 763 ft 31 kts 98°
2026-04-26 20:48 41.91401 -88.24535 764 ft 0 kts 93°
2026-04-26 20:49 41.91399 -88.24521 764 ft 17 kts 96°
2026-04-26 20:49 41.91359 -88.24045 767 ft 59 kts 84°
2026-04-26 20:49 41.91378 -88.23942 765 ft 26 kts 204°
2026-04-26 20:49 41.91363 -88.24028 766 ft 1 kts 336°
2026-04-26 20:50 41.91633 -88.24146 807 ft 66 kts 346°
2026-04-26 20:50 41.92016 -88.24291 765 ft 27 kts 346°